Starlink 1901

decayed
NORAD ID: 46762 Int'l Des: 2020-074 Owner: SPXS Country: US Constellation: starlink
LEOCIRCULAR
Gruppe

Über Starlink 1901

Beschreibung wird geladen...

Höhenverlauf

Altitude vs Time

uPlot chart will show altitude changes over time

Zweizeiliger Elementsatz

1 46762U 20074Z 21318.51915708 .31528156 12388-4 18881-2 0 9994
2 46762 53.0344 174.2088 0003101 109.6822 251.0531 16.41577735 59455
Epoch: 14. Nov. 2021 • Age: 37058 hours

Aktueller Status

Position data unavailable
Startdatum 24. Okt. 2020
Alter 5.2 years
Verglühungsdatum 14. Nov. 2021
Typ internet

Technische Details

Klassifizierung Payload
Masse 260.00 kg
Trockenmasse 248.00 kg
Gesamtmasse 260.00 kg
Länge 0.20 m
Durchmesser 2.80 m
Spannweite 9.00 m
Form Box + pan
Hersteller SPXS
Bus-Typ Starlink
Phasenstatus Unknown Transfer Status
Besitzer/Staat SPXS/US

Große Konstellationen

Loading constellations...